DW7530 Weather Reports


Display with metric or nautical units.
time (UTC)temp
F
wind
direction
speed
MPH
gust
MPH
rain 1hr
in
rain 24hr
in
rain mn
in
humidity
%
barometer
mb
20260508080143 41 318 1.0 3.0 0.00 0.00 0.00 66 1005.8
20260508074518 42 318 0.0 5.0 0.00 0.01 0.00 64 1005.7
20260508073017 42 318 1.0 4.0 0.00 0.01 0.00 64 1005.6
20260508071520 43 318 3.0 6.0 0.00 0.01 0.00 62 1005.6
20260508070013 43 318 2.0 10.0 0.00 0.01 0.00 61 1005.7
20260508064514 43 320 3.0 6.0 0.00 0.02 0.00 61 1005.7
20260508063009 43 321 4.0 6.0 0.00 0.02 0.00 60 1005.9
20260508061509 43 321 3.0 6.0 0.00 0.02 0.00 60 1005.9
20260508060013 43 326 2.0 7.0 0.00 0.02 0.00 60 1006.0
20260508054503 43 318 4.0 8.0 0.00 0.20 0.00 60 1006.1
20260508053002 43 314 1.0 6.0 0.00 0.20 0.00 61 1006.3
20260508051600 43 314 1.0 4.0 0.00 0.20 0.00 61 1006.4
20260508051501 43 314 1.0 3.0 0.00 0.20 0.00 61 1006.4
20260508044600 43 314 2.0 5.0 0.00 0.22 0.00 60 1006.4
20260508043054 44 314 0.0 2.0 0.00 0.22 0.00 58 1006.5
20260508041552 44 314 1.0 5.0 0.00 0.22 0.00 57 1006.5
20260508040050 44 314 1.0 4.0 0.00 0.22 0.00 56 1006.7
20260508034547 45 314 0.0 4.0 0.00 0.22 0.22 55 1006.8
20260508033110 45 314 2.0 5.0 0.00 0.22 0.22 54 1006.8
20260508031547 46 314 1.0 5.0 0.00 0.22 0.22 53 1006.8
20260508030100 46 314 2.0 7.0 0.00 0.22 0.22 52 1006.6
20260508024607 47 314 2.0 6.0 0.00 0.23 0.22 51 1006.7
20260508023045 47 314 5.0 7.0 0.00 0.23 0.22 51 1006.5
20260508021545 47 316 5.0 8.0 0.00 0.23 0.22 50 1006.5
20260508014553 48 305 3.0 6.0 0.00 0.26 0.22 52 1006.5
20260508013047 48 305 3.0 8.0 0.00 0.26 0.22 52 1006.4
20260508011546 49 314 4.0 9.0 0.00 0.26 0.22 52 1006.3
20260508010042 49 314 4.0 10.0 0.00 0.26 0.22 52 1006.3
20260508004542 50 333 5.0 11.0 0.00 0.26 0.22 50 1006.1
20260508003043 51 339 6.0 13.0 0.00 0.26 0.22 48 1005.9
20260508001550 52 325 5.0 11.0 0.00 0.26 0.22 48 1005.6
20260508000040 53 308 5.0 8.0 0.00 0.26 0.22 46 1005.3
20260507234539 54 318 6.0 12.0 0.00 0.31 0.22 45 1005.1
20260507233039 55 312 5.0 9.0 0.00 0.31 0.22 47 1004.7
20260507231538 55 320 5.0 11.0 0.00 0.31 0.22 47 1004.5
20260507230038 57 335 5.0 10.0 0.00 0.31 0.22 43 1004.1
20260507224538 58 259 7.0 13.0 0.00 0.45 0.22 40 1003.8
20260507223038 58 271 5.0 10.0 0.00 0.45 0.22 41 1003.4
20260507221536 59 315 5.0 10.0 0.00 0.45 0.22 41 1003.3
20260507220034 60 314 3.0 8.0 0.00 0.45 0.22 41 1003.2
20260507214531 57 298 0.0 7.0 0.00 0.53 0.22 68 1003.3
20260507213039 57 314 0.0 4.0 0.00 0.53 0.22 70 1003.2
20260507211544 58 285 0.0 6.0 0.00 0.53 0.22 67 1003.3
20260507210029 57 121 0.0 1.0 0.00 0.53 0.22 72 1003.2
20260507204528 56 121 0.0 0.0 0.00 0.57 0.22 71 1003.0
20260507203028 56 122 0.0 2.0 0.00 0.57 0.22 71 1003.0
20260507201536 57 122 0.0 2.0 0.00 0.57 0.22 71 1003.0
20260507200034 55 121 0.0 4.0 0.00 0.57 0.22 73 1003.1
20260507194526 54 129 0.0 6.0 0.00 0.57 0.22 74 1003.2
20260507193026 56 120 2.0 6.0 0.00 0.57 0.22 73 1003.2
20260507191526 55 127 1.0 5.0 0.00 0.57 0.22 74 1003.3
20260507190023 55 145 0.0 4.0 0.00 0.57 0.22 76 1003.3
20260507184522 54 147 0.0 2.0 0.00 0.57 0.22 75 1003.7
20260507183022 54 139 1.0 3.0 0.00 0.57 0.22 75 1003.8
20260507181522 54 199 3.0 6.0 0.00 0.57 0.22 74 1003.9
20260507180037 55 216 5.0 7.0 0.00 0.57 0.22 72 1003.9
20260507174524 55 189 2.0 7.0 0.00 0.57 0.22 73 1004.1
20260507173026 56 158 2.0 7.0 0.00 0.57 0.22 71 1004.1
20260507171519 57 178 4.0 7.0 0.00 0.57 0.22 69 1004.1
20260507170034 57 113 2.0 6.0 0.00 0.57 0.22 74 1004.1
20260507164519 56 172 3.0 6.0 0.00 0.57 0.22 71 1004.4
20260507163018 56 187 3.0 6.0 0.00 0.57 0.22 67 1004.5
20260507161519 57 125 1.0 5.0 0.00 0.57 0.22 67 1004.5
20260507160018 58 221 1.0 6.0 0.00 0.57 0.22 64 1004.6
20260507154516 58 89 2.0 5.0 0.00 0.57 0.22 64 1004.7
20260507153014 56 123 1.0 6.0 0.00 0.57 0.22 67 1004.8
20260507151517 56 174 2.0 5.0 0.00 0.57 0.22 67 1005.0
20260507150012 56 185 0.0 4.0 0.00 0.57 0.22 70 1005.0
20260507144510 54 148 1.0 4.0 0.00 0.57 0.22 71 1005.2
20260507143009 55 276 0.0 4.0 0.00 0.57 0.22 69 1005.4
20260507141505 54 18 2.0 6.0 0.00 0.57 0.22 70 1005.7
20260507140007 54 337 0.0 4.0 0.00 0.57 0.22 72 1005.7
20260507134503 53 195 0.0 6.0 0.00 0.57 0.22 73 1005.7
20260507133100 53 327 0.0 9.0 0.00 0.57 0.22 75 1005.7
20260507131558 52 309 2.0 7.0 0.00 0.57 0.22 77 1006.0
20260507130105 51 334 3.0 8.0 0.00 0.57 0.22 78 1005.7
20260507124600 50 310 2.0 9.0 0.00 0.57 0.22 79 1006.0
20260507123057 50 313 3.0 8.0 0.00 0.57 0.22 80 1005.9
20260507121557 49 316 4.0 7.0 0.00 0.57 0.22 85 1005.7
20260507120052 48 311 1.0 4.0 0.00 0.57 0.22 89 1005.9
20260507114552 47 311 0.0 5.0 0.00 0.57 0.22 89 1006.2
20260507113051 47 311 1.0 5.0 0.00 0.57 0.22 90 1006.2
20260507111550 46 311 2.0 6.0 0.00 0.57 0.22 90 1006.3
20260507110057 46 311 0.0 2.0 0.00 0.57 0.22 91 1006.5
20260507104551 46 311 0.0 3.0 0.00 0.57 0.22 92 1006.0
20260507103111 45 311 2.0 5.0 0.00 0.57 0.22 92 1005.6
20260507101543 45 311 3.0 5.0 0.00 0.57 0.22 92 1005.8
20260507100050 45 311 0.0 5.0 0.00 0.57 0.22 92 1005.4
20260507094538 45 311 3.0 5.0 0.00 0.57 0.22 92 1005.6
20260507093038 45 311 2.0 5.0 0.00 0.57 0.22 92 1005.3
20260507091539 45 311 3.0 5.0 0.00 0.57 0.22 92 1005.4
20260507090035 46 311 0.0 4.0 0.00 0.57 0.22 92 1006.1
20260507084541 46 311 1.0 5.0 0.00 0.57 0.22 92 1005.3
20260507083030 46 314 4.0 8.0 0.00 0.57 0.22 92 1005.2
20260507081529 46 321 2.0 6.0 0.00 0.57 0.22 92 1005.2